Location: Guilderland
(42.7045°N, 73.9115°W)
Time: 05:09:34
(UTC+00:00)

Meteor 1-21 Rocket - Pass Details

Date: 24 January 2020
Orbit: 834 x 906 km, 81.2° (Epoch: 26 February)

Event Time Altitude Azimuth Distance (km) Brightness Sun altitude
Rises 22:49:14 0° 187° (S) 3,385 7.7 -9.6°
Reaches altitude 10° 22:51:36 10° 187° (S) 2,462 6.9 -10.0°
Maximum altitude 22:57:12 87° 100° (E) 865 4.2 -11.0°
Drops below altitude 10° 23:02:57 10° 11° (N) 2,526 6.4 -12.0°
Sets 23:05:25 0° 11° (N) 3,479 7.1 -12.4°
